Location: Guferjoch
(46.7462°N, 8.4506°E)
Time: 00:27:25
(UTC+00:00)

Helios 1B rocket - Pass Details

Date: 14 July 2020
Orbit: 574 x 584 km, 98.1° (Epoch: 03 August)

Event Time Altitude Azimuth Distance (km) Brightness Sun altitude
Rises 00:25:46 0° 9° (N) 2,809 7.5 -20.6°
Reaches altitude 10° 00:27:57 10° 5° (N) 1,903 6.2 -20.5°
Maximum altitude 00:31:59 55° 288° (WNW) 698 2.8 -20.3°
Enters shadow 00:32:50 45° 244° (WSW) 791 2.8 -20.3°
